Regional Weather Roundup
Issued by NWS

Home | Current Version | Previous Version | Graphics & Text | Print | Product List | Glossary On
Versions: 1 2 3 4 5 6 7 8 9 10 11 12 13 14 15 16 17 18 19 20 21 22 23 24 25 26 27 28 29 30 31 32 33 34 35 36 37 38 39 40 41 42 43 44 45 46 47 48 49 50
184
ASUS44 KJAN 261410
RWRMS

MISSISSIPPI HOURLY WEATHER ROUNDUP
NATIONAL WEATHER SERVICE JACKSON MS
800 AM CST THU FEB 26 2015

NOTE: "FAIR: INDICATES FEW OR NO CLOUDS BELOW 12,000 FEET WITH NO
SIGNIFICANT WEATHER AND/OR OBSTRUCTIONS TO VISIBILITY.

MSZ001>002-007>008-010>013-018>021-025>028-034>036-261500-
NORTHWEST MISSISSIPPI

CITY           SKY/WX    TMP DP  RH WIND       PRES   REMARKS
CLARKSDALE     CLOUDY    28  28 100 CALM      30.08R VSB<1/4
CLEVELAND      FOG       29  29 100 W6        30.08R VSB 1/4 WCI  23
GREENWOOD      CLOUDY    31  29  92 NW3       30.07R FOG
GREENVILLE     FOG       29  28  96 NW7       30.08R VSB 1/2 WCI  22
OLIVE BRANCH   MOSUNNY   27  27 100 CALM      30.04R FOG
OXFORD         FOG       27  27 100 W5        30.06R VSB 1   WCI  21
TUNICA         FOG       27  27 100 W3        30.09R VSB 1/4
$$

MSZ003>006-009-014>017-022>024-029>033-037>039-261500-
NORTHEAST MISSISSIPPI

CITY           SKY/WX    TMP DP  RH WIND       PRES   REMARKS
COLUMBUS AFB   CLOUDY    28  28  99 NW5       30.03R WCI  23
CORINTH        FAIR      28  27  93 W3        30.02R FOG
GOLDN TRIANGLE CLOUDY    28  27  93 CALM      30.02R
STARKVILLE     CLOUDY    30  30 100 CALM      30.03R FOG
TUPELO         CLOUDY    29  27  92 N5        30.03R FOG     WCI  24
$$

MSZ040-058-261500-
CENTRAL MISSISSIPPI

CITY           SKY/WX    TMP DP  RH WIND       PRES   REMARKS
JACKSON INTL   CLOUDY    34  31  88 N12       30.03R WCI  25
JACKSON HAWKNS CLOUDY    33  30  88 N8        30.04R WCI  26
MERIDIAN KEY   CLOUDY    34  31  88 N9        30.01R WCI  27
MERIDIAN NAS   CLOUDY    34  31  88 NW8       30.02R WCI  27
VICKSBURG      CLOUDY    33  30  88 N7        30.08R WCI  27
$$

MSZ059>079-261500-
SOUTH MISSISSIPPI

CITY           SKY/WX    TMP DP  RH WIND       PRES   REMARKS
BROOKHAVEN     CLOUDY    34  34 100 NW5       30.04R WCI  30
HATTIESBURG    CLOUDY    37  34  89 N7        30.02R WCI  32
MCCOMB         CLOUDY    34  31  88 N8        30.03R WCI  27
NATCHEZ        CLOUDY    34  32  93 NW8       30.07R WCI  27
PINE BELT      CLOUDY    36  30  80 N9        30.02R WCI  29
$$

MSZ080>082-261500-
COASTAL MISSISSIPPI

CITY           SKY/WX    TMP DP  RH WIND       PRES   REMARKS
BAY ST LOUIS   CLOUDY    37  30  75 N13       29.99R WCI  29
BILOXI         CLOUDY    38  35  87 N15       29.97R WCI  29
PASCAGOULA     CLOUDY    38  34  85 N15G24    29.97R WCI  29
GULFPORT       CLOUDY    38  33  82 N13       29.97R WCI  30
$$



USA.gov is the U.S. government's official web portal to all federal, state and local government web resources and services.